K5PCJ Weather Reports


time (UTC)temp
C
wind
direction
speed
KPH
gust
KPH
rain 1hr
cm
rain 24hr
cm
rain mn
cm
humidity
%
barometer
mb
20260510000057 28 0 0.0 0.0 0.00 0.03 0.00 79 1008.3
20260509235544 28 0 0.0 0.0 0.00 0.08 0.00 78 1008.6
20260509235045 28 0 0.0 0.0 0.00 0.08 0.00 77 1008.5
20260509234553 28 0 0.0 0.0 0.00 0.08 0.00 76 1008.3
20260509234045 29 0 0.0 0.0 0.00 0.08 0.00 76 1008.3
20260509233545 29 0 0.0 0.0 0.00 0.08 0.00 74 1008.4
20260509233058 30 0 0.0 0.0 0.00 0.08 0.00 73 1008.4
20260509232545 30 0 0.0 0.0 0.00 0.08 0.00 71 1008.5
20260509232044 31 0 0.0 0.0 0.00 0.08 0.00 70 1008.4
20260509231550 31 0 0.0 0.0 0.00 0.08 0.00 69 1008.4
20260509231043 32 0 0.0 1.6 0.00 0.08 0.00 68 1008.5
20260509230543 32 0 0.0 1.6 0.00 0.08 0.00 66 1008.4
20260509230054 32 0 0.0 1.6 0.00 0.08 0.00 67 1008.3
20260509225544 32 0 0.0 0.0 0.00 0.13 0.00 66 1008.3
20260509225043 32 0 0.0 1.6 0.00 0.13 0.00 65 1008.3
20260509224553 32 0 0.0 1.6 0.00 0.13 0.00 67 1008.4
20260509224043 31 0 0.0 1.6 0.00 0.13 0.00 70 1008.2
20260509223544 31 0 0.0 1.6 0.00 0.13 0.00 66 1008.4
20260509223053 31 0 0.0 1.6 0.00 0.13 0.00 67 1008.2
20260509222547 32 103 0.0 1.6 0.00 0.13 0.00 68 1008.2
20260509222043 32 0 0.0 1.6 0.00 0.13 0.00 66 1008.2
20260509221550 33 103 0.0 0.0 0.00 0.13 0.00 61 1008.2
20260509221044 32 0 0.0 1.6 0.00 0.13 0.00 61 1008.1
20260509220543 32 0 0.0 3.2 0.00 0.13 0.00 62 1008.1
20260509220054 32 0 0.0 3.2 0.00 0.13 0.00 66 1008.2
20260509215543 32 0 1.6 3.2 0.00 0.15 0.00 64 1008.2
20260509215044 32 91 0.0 1.6 0.00 0.15 0.00 64 1008.1
20260509214554 32 103 0.0 4.8 0.00 0.15 0.00 66 1008.1
20260509214046 32 0 0.0 4.8 0.00 0.15 0.00 66 1008.1
20260509213543 32 103 1.6 4.8 0.00 0.15 0.00 65 1008.1
20260509213111 32 124 0.0 3.2 0.00 0.15 0.00 65 1008.1
20260509212544 32 121 0.0 3.2 0.00 0.15 0.00 66 1008.1
20260509212043 31 148 0.0 3.2 0.00 0.15 0.00 66 1008.1
20260509211552 31 0 0.0 3.2 0.00 0.15 0.00 67 1008.1
20260509211044 32 255 0.0 3.2 0.00 0.15 0.00 67 1008.2
20260509210544 32 77 0.0 1.6 0.00 0.15 0.00 68 1008.4
20260509210055 31 77 0.0 3.2 0.00 0.15 0.00 69 1008.3
20260509205547 31 226 0.0 6.4 0.00 0.15 0.00 68 1008.5
20260509205044 31 74 0.0 6.4 0.00 0.15 0.00 68 1008.5
20260509204550 31 0 0.0 3.2 0.00 0.15 0.00 69 1008.5
20260509204044 31 140 1.6 4.8 0.00 0.15 0.00 69 1008.6
20260509203543 31 293 0.0 4.8 0.00 0.15 0.00 67 1008.7
20260509203053 31 45 0.0 4.8 0.00 0.15 0.00 68 1008.7
20260509202543 31 0 0.0 4.8 0.00 0.15 0.00 70 1008.8
20260509202044 31 69 0.0 4.8 0.00 0.15 0.00 71 1008.9
20260509201548 30 150 1.6 4.8 0.00 0.15 0.00 73 1008.9
20260509201043 30 108 0.0 4.8 0.00 0.15 0.00 74 1008.9
20260509200545 30 264 1.6 4.8 0.00 0.15 0.00 73 1009.0
20260509200104 30 124 0.0 1.6 0.00 0.15 0.00 75 1009.1
20260509195544 30 123 0.0 1.6 0.00 0.15 0.00 73 1009.1
20260509195045 30 84 0.0 1.6 0.00 0.15 0.00 76 1009.2
20260509194557 29 0 0.0 1.6 0.00 0.15 0.00 78 1009.2
20260509194044 29 0 0.0 1.6 0.00 0.15 0.00 78 1009.3
20260509193544 28 61 0.0 1.6 0.00 0.15 0.00 78 1009.3
20260509193047 28 0 0.0 1.6 0.00 0.15 0.00 81 1009.4
20260509192543 28 0 0.0 0.0 0.00 0.15 0.00 81 1009.5
20260509192043 28 0 0.0 1.6 0.00 0.15 0.00 81 1009.6
20260509191605 28 0 0.0 1.6 0.00 0.15 0.00 80 1009.7
20260509191045 28 0 0.0 0.0 0.00 0.15 0.00 77 1009.7
20260509190547 29 0 0.0 0.0 0.00 0.15 0.00 78 1009.7
20260509190054 29 0 0.0 1.6 0.00 0.15 0.00 79 1009.7
20260509185544 29 65 0.0 1.6 0.00 0.15 0.00 76 1009.7
20260509185044 30 53 0.0 1.6 0.00 0.15 0.00 77 1009.8
20260509184610 30 0 0.0 1.6 0.00 0.15 0.00 77 1009.9
20260509184044 30 0 0.0 1.6 0.00 0.15 0.00 76 1009.9
20260509183545 30 0 0.0 1.6 0.00 0.15 0.00 76 1009.9
20260509183054 30 53 0.0 4.8 0.00 0.15 0.00 75 1009.9
20260509182543 30 110 0.0 4.8 0.00 0.15 0.00 76 1009.9
20260509182043 30 221 0.0 3.2 0.00 0.15 0.00 74 1010.0
20260509181554 31 98 0.0 3.2 0.00 0.15 0.00 74 1010.2
20260509181043 30 4 0.0 1.6 0.00 0.15 0.00 76 1010.2
20260509180543 30 0 0.0 1.6 0.00 0.15 0.00 78 1010.3
20260509180115 29 0 0.0 3.2 0.00 0.15 0.00 78 1010.4
20260509175547 29 100 1.6 4.8 0.00 0.15 0.00 79 1010.4
20260509175044 30 103 0.0 4.8 0.00 0.15 0.00 77 1010.4
20260509174553 29 0 0.0 4.8 0.00 0.15 0.00 78 1010.4
20260509174049 30 160 0.0 4.8 0.00 0.15 0.00 80 1010.4
20260509173544 29 0 0.0 3.2 0.00 0.15 0.00 79 1010.6
20260509173102 29 0 0.0 3.2 0.00 0.15 0.00 78 1010.6
20260509172544 29 4 0.0 1.6 0.00 0.15 0.00 79 1010.6
20260509172045 28 0 0.0 1.6 0.00 0.15 0.00 80 1010.6
20260509171557 28 0 0.0 1.6 0.00 0.15 0.00 81 1010.7
20260509171047 28 0 0.0 1.6 0.00 0.15 0.00 82 1010.6
20260509170543 27 0 0.0 1.6 0.00 0.15 0.00 82 1010.5
20260509170054 27 0 0.0 1.6 0.00 0.15 0.00 82 1010.4
20260509165545 27 68 0.0 3.2 0.00 0.15 0.00 81 1010.6
20260509165044 27 0 0.0 3.2 0.00 0.15 0.00 83 1010.6
20260509164546 27 97 0.0 3.2 0.00 0.15 0.00 82 1010.6
20260509164046 27 0 0.0 3.2 0.00 0.15 0.00 83 1010.7
20260509163548 27 70 0.0 1.6 0.00 0.15 0.00 83 1010.7
20260509163056 27 0 0.0 1.6 0.00 0.15 0.00 82 1010.6
20260509162545 27 0 0.0 1.6 0.00 0.15 0.00 83 1010.7
20260509162046 27 0 0.0 1.6 0.00 0.15 0.00 83 1010.7
20260509161601 27 0 0.0 1.6 0.00 0.15 0.00 82 1010.8
20260509161045 27 0 0.0 1.6 0.00 0.15 0.00 83 1010.8
20260509160545 27 0 0.0 1.6 0.00 0.15 0.00 84 1010.8
20260509160052 27 0 0.0 1.6 0.00 0.15 0.00 86 1010.7
20260509155544 26 0 0.0 1.6 0.00 0.15 0.00 85 1010.9
20260509155044 26 74 0.0 1.6 0.00 0.15 0.00 87 1010.9
20260509154554 26 0 0.0 1.6 0.00 0.15 0.00 88 1010.8
20260509154045 26 75 0.0 1.6 0.00 0.15 0.00 89 1010.7
20260509153545 25 0 0.0 1.6 0.00 0.15 0.00 90 1010.9
20260509153100 25 0 0.0 1.6 0.00 0.15 0.00 91 1010.8
20260509152545 25 0 0.0 0.0 0.00 0.15 0.00 92 1010.8
20260509152047 24 0 0.0 0.0 0.00 0.15 0.00 92 1010.9
20260509151552 24 0 0.0 0.0 0.00 0.15 0.00 94 1010.9
20260509151049 24 0 0.0 0.0 0.00 0.15 0.00 94 1010.9
20260509150545 23 0 0.0 0.0 0.00 0.15 0.00 94 1011.0
20260509150047 24 0 0.0 0.0 0.00 0.15 0.00 94 1010.9
20260509145545 24 0 0.0 0.0 0.00 0.15 0.00 94 1010.9
20260509145116 23 0 0.0 0.0 0.00 0.15 0.00 94 1010.8
20260509144553 23 0 0.0 0.0 0.00 0.15 0.00 95 1010.8
20260509144044 23 0 0.0 0.0 0.00 0.15 0.00 95 1010.6
20260509143544 23 0 0.0 0.0 0.00 0.15 0.00 95 1010.7
20260509143057 23 0 0.0 0.0 0.00 0.15 0.00 95 1010.4
20260509142544 23 0 0.0 0.0 0.00 0.15 0.00 95 1010.3
20260509142045 23 0 0.0 1.6 0.00 0.15 0.00 95 1010.3
20260509141556 23 0 0.0 1.6 0.00 0.15 0.00 95 1010.2
20260509141046 23 28 0.0 1.6 0.00 0.15 0.00 95 1010.1
20260509140549 23 0 0.0 0.0 0.00 0.15 0.00 95 1010.4
20260509140106 23 0 0.0 1.6 0.00 0.15 0.00 95 1010.5
20260509135545 23 0 0.0 3.2 0.00 0.15 0.00 95 1010.7
20260509135045 23 0 0.0 3.2 0.00 0.15 0.00 96 1010.7
20260509134554 23 79 1.6 3.2 0.00 0.15 0.00 96 1010.5
20260509134048 23 0 0.0 0.0 0.00 0.15 0.00 96 1010.3
20260509133544 23 0 0.0 0.0 0.00 0.15 0.00 96 1010.5
20260509133052 23 0 0.0 0.0 0.00 0.15 0.00 96 1010.7
20260509132543 23 0 0.0 0.0 0.00 0.15 0.00 96 1010.6
20260509132043 23 0 0.0 0.0 0.00 0.15 0.00 96 1010.7
20260509131550 23 0 0.0 0.0 0.00 0.15 0.00 96 1010.8
20260509131043 23 0 0.0 0.0 0.00 0.15 0.00 96 1010.9
20260509130543 23 0 0.0 0.0 0.00 0.15 0.00 96 1010.8
20260509130053 23 0 0.0 0.0 0.00 0.15 0.00 96 1011.0
20260509125543 22 0 0.0 0.0 0.00 0.15 0.00 96 1011.0
20260509125043 22 0 0.0 0.0 0.00 0.15 0.00 96 1010.9
20260509124555 22 0 0.0 0.0 0.00 0.15 0.00 96 1010.9
20260509124043 22 0 0.0 0.0 0.00 0.15 0.00 96 1010.6
20260509123545 22 0 0.0 0.0 0.00 0.15 0.00 96 1010.9
20260509123050 22 0 0.0 0.0 0.00 0.15 0.00 96 1010.9
20260509122544 22 0 0.0 0.0 0.00 0.15 0.00 96 1010.7
20260509122043 22 0 0.0 0.0 0.00 0.15 0.00 96 1010.5
20260509121550 22 0 0.0 0.0 0.00 0.15 0.00 96 1010.4
20260509121048 22 0 0.0 0.0 0.00 0.15 0.00 96 1010.3
20260509120544 22 0 0.0 0.0 0.00 0.15 0.00 96 1010.0
20260509120053 22 0 0.0 0.0 0.00 0.15 0.00 96 1010.1
20260509115543 22 0 0.0 0.0 0.00 0.15 0.00 96 1010.1
20260509115043 22 0 0.0 0.0 0.00 0.15 0.00 96 1009.9
20260509114644 22 0 0.0 0.0 0.00 0.15 0.00 96 1009.8
20260509114043 22 0 0.0 0.0 0.00 0.15 0.00 96 1009.9
20260509113543 22 0 0.0 0.0 0.00 0.15 0.00 96 1010.0
20260509113051 22 0 0.0 0.0 0.00 0.15 0.00 96 1010.2
20260509112544 22 0 0.0 0.0 0.00 0.15 0.00 96 1010.4
20260509112052 22 0 0.0 0.0 0.00 0.15 0.00 96 1010.4
20260509111554 22 0 0.0 0.0 0.00 0.15 0.00 96 1010.3
20260509111043 22 0 0.0 0.0 0.00 0.15 0.00 96 1010.3
20260509110546 22 0 0.0 0.0 0.00 0.15 0.00 96 1010.3
20260509110049 22 0 0.0 0.0 0.00 0.15 0.00 96 1010.2
20260509105543 22 0 0.0 0.0 0.00 0.15 0.00 96 1010.2
20260509105044 22 0 0.0 0.0 0.00 0.15 0.00 96 1010.5
20260509104553 22 0 0.0 0.0 0.00 0.15 0.00 96 1010.5
20260509104043 22 0 0.0 0.0 0.00 0.15 0.00 95 1010.4
20260509103544 22 0 0.0 0.0 0.00 0.15 0.00 95 1010.3
20260509103053 22 0 0.0 0.0 0.00 0.15 0.00 96 1010.0
20260509102545 22 0 0.0 0.0 0.00 0.15 0.00 95 1009.9
20260509102045 22 0 0.0 0.0 0.00 0.15 0.00 95 1009.8
20260509101547 22 0 0.0 0.0 0.00 0.15 0.00 95 1009.9
20260509101045 22 0 0.0 0.0 0.00 0.15 0.00 95 1009.7
20260509100545 22 0 0.0 0.0 0.00 0.15 0.00 95 1009.7
20260509100054 22 0 0.0 0.0 0.00 0.15 0.00 95 1009.5
20260509095548 22 0 0.0 0.0 0.00 0.15 0.00 95 1009.3
20260509095046 22 0 0.0 0.0 0.00 0.15 0.00 95 1009.4
20260509094557 22 0 0.0 0.0 0.00 0.15 0.00 95 1009.4
20260509094044 22 0 0.0 0.0 0.00 0.15 0.00 95 1009.6
20260509093544 22 0 0.0 0.0 0.00 0.15 0.00 95 1009.8
20260509093053 22 0 0.0 0.0 0.00 0.15 0.00 95 1009.8
20260509092548 22 0 0.0 0.0 0.00 0.15 0.00 95 1010.0
20260509092047 22 0 0.0 0.0 0.00 0.15 0.00 95 1010.0
20260509091557 22 0 0.0 0.0 0.00 0.15 0.00 95 1010.0
20260509091045 22 0 0.0 0.0 0.00 0.15 0.00 95 1010.0
20260509090544 22 0 0.0 0.0 0.00 0.15 0.00 95 1009.9
20260509090055 22 0 0.0 0.0 0.00 0.15 0.00 95 1009.8
20260509085548 22 0 0.0 0.0 0.00 0.15 0.00 95 1009.8
20260509085045 22 0 0.0 0.0 0.00 0.15 0.00 95 1009.7
20260509084601 22 0 0.0 0.0 0.00 0.15 0.00 95 1009.7
20260509084045 22 0 0.0 0.0 0.00 0.15 0.00 95 1009.7
20260509083546 22 0 0.0 0.0 0.00 0.15 0.00 95 1009.7
20260509083106 22 0 0.0 0.0 0.00 0.15 0.00 95 1009.9
20260509082544 22 0 0.0 0.0 0.00 0.15 0.00 95 1009.9
20260509082047 22 0 0.0 0.0 0.00 0.15 0.00 95 1009.9
20260509081555 22 0 0.0 0.0 0.00 0.15 0.00 95 1009.9
20260509081045 22 0 0.0 0.0 0.00 0.15 0.00 95 1009.7
20260509080548 22 0 0.0 0.0 0.00 0.15 0.00 95 1009.8
20260509080053 22 0 0.0 0.0 0.00 0.15 0.00 95 1010.0
20260509075544 22 0 0.0 0.0 0.00 0.15 0.00 95 1009.9
20260509075045 22 0 0.0 0.0 0.00 0.15 0.00 95 1010.0
20260509074609 22 0 0.0 0.0 0.00 0.15 0.00 95 1010.1
20260509074044 22 0 0.0 0.0 0.00 0.15 0.00 95 1010.2
20260509073547 22 0 0.0 0.0 0.00 0.15 0.00 95 1010.3
20260509073103 22 0 0.0 0.0 0.00 0.15 0.00 95 1010.3
20260509072545 22 0 0.0 0.0 0.00 0.15 0.00 95 1010.3
20260509072044 22 0 0.0 0.0 0.00 0.15 0.00 95 1010.2
20260509071557 22 0 0.0 0.0 0.00 0.15 0.00 95 1010.3
20260509071045 22 0 0.0 0.0 0.00 0.15 0.00 95 1010.2
20260509070545 22 0 0.0 0.0 0.00 0.15 0.00 95 1010.2
20260509070055 22 0 0.0 0.0 0.00 0.15 0.00 95 1010.2
20260509065546 22 0 0.0 0.0 0.00 0.15 0.00 95 1010.2
20260509065044 22 0 0.0 0.0 0.00 0.15 0.00 95 1010.2
20260509064547 22 0 0.0 0.0 0.00 0.15 0.00 95 1010.2
20260509064045 22 0 0.0 0.0 0.00 0.15 0.00 95 1010.2
20260509063546 22 0 0.0 0.0 0.00 0.15 0.00 95 1010.2
20260509063057 22 0 0.0 0.0 0.00 0.15 0.00 95 1010.2
20260509062545 22 0 0.0 0.0 0.00 0.15 0.00 95 1010.3
20260509062044 22 0 0.0 0.0 0.00 0.15 0.00 95 1010.3
20260509061548 22 0 0.0 0.0 0.00 0.15 0.00 95 1010.3
20260509061044 22 0 0.0 0.0 0.00 0.15 0.00 95 1010.4
20260509060547 22 0 0.0 0.0 0.00 0.15 0.00 95 1010.5
20260509060107 22 0 0.0 0.0 0.00 0.15 0.00 95 1010.6
20260509055545 22 0 0.0 0.0 0.00 0.15 0.00 95 1010.7
20260509055045 22 0 0.0 0.0 0.00 0.15 0.00 95 1010.8
20260509054548 22 0 0.0 1.6 0.00 0.15 0.00 95 1010.7
20260509054044 22 0 0.0 1.6 0.00 0.15 0.00 95 1010.8
20260509053544 22 0 0.0 0.0 0.00 0.15 0.00 95 1010.8
20260509053057 22 0 0.0 0.0 0.00 0.15 0.00 95 1010.8
20260509052544 22 0 0.0 0.0 0.00 0.15 0.00 95 1010.8
20260509052045 22 0 0.0 0.0 0.00 0.15 0.00 95 1010.8
20260509051548 22 0 0.0 0.0 0.00 0.15 0.00 95 1010.6
20260509051044 22 0 0.0 0.0 0.00 0.15 0.00 95 1010.6
20260509050545 22 0 0.0 0.0 0.00 0.15 0.00 95 1010.7
20260509050053 22 0 0.0 0.0 0.00 0.15 0.00 95 1010.9
20260509045547 21 0 0.0 0.0 0.00 0.15 0.15 95 1010.8
20260509045045 21 0 0.0 0.0 0.00 0.15 0.15 95 1011.0
20260509044554 21 0 0.0 0.0 0.00 0.15 0.15 95 1010.9
20260509044045 21 0 0.0 0.0 0.00 0.15 0.15 95 1010.8
20260509043545 21 0 0.0 0.0 0.00 0.15 0.15 95 1010.8
20260509043059 21 0 0.0 1.6 0.00 0.15 0.15 95 1010.8
20260509042545 21 0 0.0 1.6 0.00 0.15 0.15 95 1010.8
20260509042045 21 0 0.0 1.6 0.00 0.15 0.15 95 1010.8
20260509041553 21 0 0.0 1.6 0.00 0.15 0.15 95 1010.8
20260509041045 21 0 0.0 1.6 0.00 0.15 0.15 95 1010.8
20260509040543 21 0 0.0 1.6 0.00 0.15 0.15 95 1010.7
20260509035543 21 0 0.0 0.0 0.00 0.15 0.15 95 1010.7
20260509035045 21 0 0.0 0.0 0.00 0.15 0.15 95 1010.4
20260509034549 21 0 0.0 0.0 0.00 0.15 0.15 95 1010.6
20260509034044 21 0 0.0 0.0 0.00 0.15 0.15 95 1010.6
20260509033545 21 0 0.0 1.6 0.00 0.15 0.15 95 1010.4
20260509033110 21 0 0.0 1.6 0.00 0.15 0.15 94 1010.4
20260509032545 21 0 0.0 1.6 0.00 0.15 0.15 94 1010.3
20260509032044 21 0 0.0 1.6 0.00 0.15 0.15 94 1010.6
20260509031551 21 0 0.0 1.6 0.00 0.15 0.15 94 1010.5
20260509031045 21 0 0.0 1.6 0.00 0.15 0.15 94 1010.4
20260509030544 21 91 0.0 1.6 0.00 0.15 0.15 94 1010.4
20260509030050 21 88 0.0 1.6 0.00 0.15 0.15 94 1010.3
20260509025543 21 0 0.0 1.6 0.00 0.15 0.15 94 1010.2
20260509025046 21 0 0.0 1.6 0.03 0.15 0.15 94 1010.3
20260509024558 21 338 0.0 1.6 0.03 0.15 0.15 94 1010.5
20260509024043 21 0 0.0 1.6 0.03 0.15 0.15 94 1010.2
20260509023548 21 77 0.0 3.2 0.03 0.15 0.15 94 1010.3
20260509023048 21 0 0.0 3.2 0.03 0.15 0.15 94 1010.0
20260509022545 21 0 0.0 1.6 0.03 0.15 0.15 94 1010.0
20260509022045 21 0 0.0 1.6 0.03 0.15 0.15 94 1010.0
20260509021550 21 0 0.0 1.6 0.03 0.15 0.15 94 1010.0
20260509021046 21 0 0.0 1.6 0.03 0.15 0.15 94 1010.1
20260509020544 21 0 0.0 1.6 0.03 0.15 0.15 94 1010.0
20260509015545 21 0 0.0 1.6 0.03 0.15 0.15 94 1010.0
20260509015044 21 88 0.0 1.6 0.00 0.13 0.13 94 1010.1
20260509014549 21 0 0.0 1.6 0.00 0.13 0.13 94 1010.0
20260509014043 21 0 0.0 1.6 0.00 0.13 0.13 94 1010.0
20260509013543 21 0 0.0 0.0 0.00 0.13 0.13 94 1009.9
20260509013049 21 0 0.0 0.0 0.00 0.13 0.13 94 1009.9
20260509012544 21 0 0.0 1.6 0.00 0.13 0.13 94 1009.8
20260509012044 21 0 0.0 1.6 0.00 0.13 0.13 94 1009.8
20260509011559 21 0 0.0 1.6 0.00 0.13 0.13 94 1009.8
20260509011045 21 0 0.0 3.2 0.00 0.13 0.13 94 1009.7
20260509010548 21 0 0.0 3.2 0.00 0.13 0.13 94 1009.7
20260509010101 21 103 0.0 1.6 0.00 0.13 0.13 94 1009.6
20260509005545 21 0 0.0 1.6 0.00 0.13 0.13 93 1009.6
20260509005044 21 0 0.0 1.6 0.00 0.13 0.13 93 1009.7
20260509004600 21 0 0.0 1.6 0.00 0.13 0.13 93 1009.7
20260509004044 21 0 0.0 1.6 0.00 0.13 0.13 93 1009.8
20260509003545 22 0 0.0 1.6 0.00 0.13 0.13 93 1010.0
20260509003059 22 0 0.0 1.6 0.00 0.13 0.13 93 1009.9
20260509002545 22 0 0.0 1.6 0.00 0.13 0.13 93 1009.9
20260509002044 22 0 0.0 1.6 0.00 0.13 0.13 93 1009.9
20260509001550 22 0 0.0 1.6 0.00 0.13 0.13 93 1009.8
20260509001045 22 0 0.0 1.6 0.00 0.13 0.13 93 1009.8
20260509000547 22 0 0.0 1.6 0.03 0.13 0.13 93 1009.8